Regional Weather Roundup
Issued by NWS

Home | Current Version | Previous Version | Graphics & Text | Print | Product List | Glossary On
Versions: 1 2 3 4 5 6 7 8 9 10 11 12 13 14 15 16 17 18 19 20 21 22 23 24 25 26 27 28 29 30 31 32 33 34 35 36 37 38 39 40 41 42 43 44 45 46 47 48 49 50
000
ASUS43 KOAX 040010
RWRNE

WEATHER ROUNDUP FOR NEBRASKA
NATIONAL WEATHER SERVICE OMAHA NE
700 PM CDT MON AUG 03 2015

NOTES: SATELLITE DATA IS BEING USED TO AUGMENT CLOUD COVER ABOVE
       12000 FEET.
       "FAIR" INDICATES FEW OR NO CLOUDS BELOW 12,000 FEET WITH NO
       SIGNIFICANT WEATHER AND/OR OBSTRUCTIONS TO VISIBILITY.

  * THESE STATIONS DO NOT REPORT WEATHER SUCH AS RAIN...SNOW OR FOG.

NEZ001>004-019>022-054>056-040100-
NEBRASKA PANHANDLE

CITY           SKY/WX    TMP DP  RH WIND       PRES   REMARKS
SCOTTSBLUFF    PTSUNNY   89  51  27 SW9       29.94S
6HR MIN TEMP:  80; 6HR MAX TEMP:  89;

ALLIANCE       CLOUDY    85  63  47 SE16      29.94F
6HR MIN TEMP:  82; 6HR MAX TEMP:  90;

CHADRON        PTSUNNY   89  60  37 NE7       29.89F
6HR MIN TEMP:  82; 6HR MAX TEMP:  91;

KIMBALL        CLOUDY    82  45  27 S8        30.02S
SIDNEY         CLOUDY    86  55  34 S16       30.00F
6HR MIN TEMP:  85; 6HR MAX TEMP:  92;

$$

NEZ057>060-069>072-079>082-040100-
SOUTHWEST NEBRASKA

CITY           SKY/WX    TMP DP  RH WIND       PRES   REMARKS
NORTH PLATTE   CLOUDY    81  70  69 E9        29.93F
6HR MIN TEMP:  80; 6HR MAX TEMP:  86;

IMPERIAL       PTSUNNY   89  56  32 SE10      29.95S
6HR MIN TEMP:  84; 6HR MAX TEMP:  92;

LEXINGTON      CLOUDY    82  71  68 E12       29.94F
MCCOOK         PTSUNNY   86  69  56 E14       29.92F HX  90
6HR MIN TEMP:  85; 6HR MAX TEMP:  91;

OGALLALA       CLOUDY    84  67  56 SE10      29.95F
$$

NEZ005>010-023>029-035>040-094-040100-
NORTH CENTRAL NEBRASKA

CITY           SKY/WX    TMP DP  RH WIND       PRES   REMARKS
AINSWORTH      MOSUNNY   78  60  54 E9        29.97F
BROKEN BOW     MOSUNNY   83  64  52 SE13G24   29.95F
6HR MIN TEMP:  83; 6HR MAX TEMP:  88;

O`NEILL        PTSUNNY   80  62  53 E6        29.97S
ORD            PTSUNNY   79  63  57 E9        29.95S
6HR MIN TEMP:  79; 6HR MAX TEMP:  84;

THEDFORD       PTSUNNY   84  64  50 SE12      29.96F
$$

NEZ041-046>049-061>064-073>077-083>087-040100-
SOUTH CENTRAL NEBRASKA

CITY           SKY/WX    TMP DP  RH WIND       PRES   REMARKS
GRAND ISLAND   PTSUNNY   78  66  66 SE7       29.96S
6HR MIN TEMP:  78; 6HR MAX TEMP:  83;

AURORA         CLOUDY    78  69  73 E8        29.95S
HASTINGS       CLOUDY    79  68  69 E9        29.95F
6HR MIN TEMP:  79; 6HR MAX TEMP:  85;

HEBRON         CLOUDY    81  65  58 E12       29.92S
HOLDREGE       CLOUDY    78  71  78 E10       29.94F
KEARNEY *      CLOUDY    79  68  69 E9        29.95F
YORK           PTSUNNY   77  68  73 E6        29.95F
$$

NEZ011>018-030>034-042>045-040100-
NORTHEAST NEBRASKA

CITY           SKY/WX    TMP DP  RH WIND       PRES   REMARKS
NORFOLK        MOSUNNY   78  60  53 E7        29.95F
6HR MIN TEMP:  76; 6HR MAX TEMP:  82;

ALBION         PTSUNNY   78  62  57 E8        29.96F
BLAIR          PTSUNNY   77  62  59 E3        29.95F
COLUMBUS *     PTSUNNY   79  63  57 E7        29.94F
FREMONT        PTSUNNY   79  61  54 NE6       29.95F
TEKAMAH        CLOUDY    81  66  60 NE3       29.94F
6HR MIN TEMP:  78; 6HR MAX TEMP:  83;

WAYNE          MOSUNNY   78  64  61 SE3       29.96F
$$

NEZ050>053-065>068-078-088>093-040100-
SOUTHEAST NEBRASKA

CITY           SKY/WX    TMP DP  RH WIND       PRES   REMARKS
LINCOLN        PTSUNNY   81  64  56 E10       29.94F
6HR MIN TEMP:  78; 6HR MAX TEMP:  86;

OMAHA EPPLEY   PTSUNNY   81  62  52 NE6       29.93F
6HR MIN TEMP:  75; 6HR MAX TEMP:  83; 6HR PCP: TRACE;

BEATRICE       PTSUNNY   79  69  70 E8        29.92F
FALLS CITY     MOSUNNY   79  72  79 E9        29.91F
6HR MIN TEMP:  79; 6HR MAX TEMP:  83;

NEBRASKA CITY  MOSUNNY   77  66  67 E3        29.94S
PLATTSMOUTH    MOSUNNY   77  65  65 NE3       29.94S
$$

NEZ044-045-051>053-067-040100-
OMAHA AREA

CITY           SKY/WX    TMP DP  RH WIND       PRES   REMARKS
OMAHA EPPLEY   PTSUNNY   81  62  52 NE6       29.93F
6HR MIN TEMP:  75; 6HR MAX TEMP:  83; 6HR PCP: TRACE;

BLAIR          PTSUNNY   77  62  59 E3        29.95F
FREMONT        PTSUNNY   79  61  54 NE6       29.95F
MILLARD        PTSUNNY   80  65  58 CALM      29.93F
OFFUTT AFB     PTSUNNY   79  65  62 E7        29.93S
PLATTSMOUTH    MOSUNNY   77  65  65 NE3       29.94S
WAHOO          FAIR      77  66  68 NE6       29.94F
$$


USA.gov is the U.S. government's official web portal to all federal, state and local government web resources and services.